User: anonymous   Login
Location: NJAA Observatory
(40.6819°N, 74.8979°W)
Time: 14:44:32
(UTC-04:00)
Language:

Cosmos 220 Rocket - Orbit

View from above orbital plane
View from above orbital plane
View from above satellite
View from above satellite

Ground track
Ground track

The orbit data is extracted from the following two-line orbital elements,

1 03230U 68040B   16126.75078450  .00000578  00000-0  63712-4 0  9991
2 03230  74.0360 338.4160 0029901  37.2390 323.0857 14.89836112574838
Epoch (UTC): 05 May 2016 18:01:07
Eccentricity: 0.0029901
inclination: 74.0360°
perigee height: 577 km
apogee height: 619 km
right ascension of ascending node: 338.4160°
argument of perigee: 37.2390°
revolutions per day: 14.89836112
mean anomaly at epoch: 323.0857°
orbit number at epoch: 57483

The dashed part of the orbit path shows where the satellite is in the earth's shadow,  

DLR